GW4157 Weather Reports


time (UTC)temp
F
wind
direction
speed
knots
gust
knots
rain 1hr
in
rain 24hr
in
rain mn
in
humidity
%
barometer
mb
20260509213038 63 191 4.3 9.6 0.00 0.73 0.56 63 1005.3
20260509211537 62 214 4.3 8.7 0.00 0.73 0.56 66 1005.4
20260509210042 63 187 5.2 11.3 0.00 0.73 0.56 65 1005.4
20260509204536 63 211 4.3 13.9 0.00 0.73 0.56 68 1005.8
20260509203034 62 175 6.1 10.4 0.00 0.73 0.56 67 1005.9
20260509201540 61 175 6.1 12.2 0.00 0.73 0.56 70 1006.0
20260509200038 61 182 4.3 10.4 0.00 0.73 0.56 76 1006.2
20260509194535 60 172 3.5 7.8 0.00 0.75 0.56 78 1006.2
20260509193036 59 198 4.3 8.7 0.00 0.75 0.56 78 1006.5
20260509191550 58 176 3.5 11.3 0.00 0.75 0.56 82 1006.8
20260509190035 57 155 3.5 13.0 0.00 0.75 0.56 86 1006.7
20260509184545 56 146 2.6 9.6 0.00 0.75 0.56 89 1006.9
20260509183047 55 186 2.6 6.1 0.00 0.75 0.56 91 1006.9
20260509181536 54 205 2.6 7.0 0.01 0.75 0.56 92 1007.1
20260509180035 54 184 2.6 6.1 0.01 0.75 0.56 97 1007.2
20260509174538 52 167 1.7 4.3 0.01 0.75 0.56 96 1007.3
20260509173042 52 173 2.6 6.1 0.01 0.75 0.56 97 1007.3
20260509171535 51 199 2.6 5.2 0.00 0.74 0.55 97 1007.3
20260509170035 51 200 1.7 5.2 0.00 0.74 0.55 97 1007.4
20260509164535 51 206 2.6 7.8 0.00 0.74 0.55 97 1007.3
20260509163041 50 213 2.6 7.0 0.00 0.74 0.55 98 1007.2
20260509161536 50 172 2.6 7.0 0.01 0.74 0.55 98 1007.1
20260509160036 50 194 2.6 5.2 0.01 0.74 0.55 98 1007.0
20260509154535 50 180 2.6 5.2 0.01 0.74 0.55 98 1007.0
20260509153048 49 146 1.7 4.3 0.02 0.74 0.55 98 1007.1
20260509151541 49 181 1.7 5.2 0.01 0.73 0.54 98 1007.1
20260509150037 49 148 2.6 5.2 0.02 0.73 0.54 98 1007.1
20260509144536 49 166 1.7 6.1 0.02 0.73 0.54 98 1007.0
20260509143035 48 181 1.7 5.2 0.01 0.72 0.52 98 1007.1
20260509141535 48 147 0.9 4.3 0.01 0.72 0.52 98 1007.1
20260509140036 48 156 2.6 5.2 0.01 0.71 0.52 98 1007.3
20260509134537 48 180 1.7 7.8 0.02 0.71 0.52 98 1007.2
20260509133037 47 165 0.9 3.5 0.02 0.71 0.52 98 1007.1
20260509131535 47 153 1.7 6.1 0.02 0.71 0.52 98 1007.2
20260509130040 47 142 1.7 5.2 0.01 0.70 0.51 98 1007.2
20260509124541 47 124 1.7 3.5 0.00 0.69 0.50 98 1007.5
20260509123036 46 137 1.7 5.2 0.01 0.69 0.50 98 1007.7
20260509121535 46 121 0.9 5.2 0.02 0.69 0.50 98 1007.6
20260509120036 46 115 1.7 3.5 0.05 0.69 0.50 98 1007.6
20260509114535 46 131 0.9 1.7 0.07 0.69 0.50 98 1007.6
20260509113050 46 0 0.0 1.7 0.09 0.68 0.49 98 1007.7
20260509111539 46 0 0.9 3.5 0.11 0.66 0.47 98 1007.6
20260509110037 46 124 3.5 6.1 0.11 0.64 0.45 98 1007.5
20260509104537 46 117 2.6 5.2 0.11 0.61 0.42 98 1007.4
20260509103043 46 124 3.5 8.7 0.10 0.58 0.40 98 1007.5
20260509101554 46 127 2.6 5.2 0.07 0.55 0.36 98 1007.7
20260509100040 45 130 0.9 5.2 0.08 0.52 0.34 98 1007.7
20260509094539 45 148 1.7 5.2 0.07 0.51 0.31 98 1007.9
20260509093038 45 130 2.6 6.1 0.09 0.50 0.30 98 1008.0
20260509091536 45 124 2.6 3.5 0.10 0.49 0.29 98 1008.0
20260509090040 45 117 2.6 3.5 0.10 0.46 0.26 97 1008.1
20260509084545 45 121 1.7 6.1 0.07 0.43 0.23 98 1008.3
20260509083050 45 155 2.6 5.2 0.06 0.41 0.21 98 1008.4
20260509081537 45 109 1.7 3.5 0.04 0.39 0.19 98 1008.3
20260509080039 45 119 1.7 2.6 0.01 0.36 0.16 97 1008.1
20260509074541 45 123 0.9 2.6 0.05 0.36 0.16 97 1008.0
20260509073038 45 137 0.9 2.6 0.06 0.35 0.15 97 1008.1
20260509071544 45 123 1.7 2.6 0.07 0.35 0.15 97 1008.1
20260509070037 45 89 0.9 1.7 0.07 0.35 0.15 97 1007.9
20260509064536 45 132 2.6 5.2 0.04 0.31 0.11 97 1008.6
20260509063035 45 106 1.7 2.6 0.03 0.29 0.09 97 1008.7
20260509061543 45 121 0.9 1.7 0.04 0.28 0.08 97 1009.0
20260509060047 45 137 0.9 1.7 0.05 0.28 0.08 97 1009.3
20260509054536 45 113 0.9 3.5 0.05 0.27 0.07 97 1009.5
20260509053101 45 126 1.7 6.1 0.04 0.26 0.06 97 1009.8
20260509051542 45 135 1.7 3.5 0.03 0.24 0.04 97 1010.0
20260509050043 45 129 1.7 3.5 0.03 0.23 0.03 96 1010.1
20260509044555 45 122 0.9 2.6 0.02 0.22 0.02 96 1010.1
20260509043041 45 132 0.9 2.6 0.03 0.22 0.02 96 1010.3
20260509041536 45 129 1.7 3.5 0.03 0.21 0.01 96 1010.4
20260509040041 45 118 1.7 3.5 0.04 0.20 0.00 96 1010.6
20260509034540 45 145 0.9 3.5 0.04 0.20 0.20 96 1010.7
20260509033038 45 123 1.7 1.7 0.04 0.19 0.19 96 1010.8
20260509031553 46 128 0.9 2.6 0.04 0.18 0.18 95 1010.9
20260509030056 46 196 0.9 2.6 0.03 0.16 0.16 96 1011.3
20260509024540 46 141 0.0 1.7 0.05 0.16 0.16 95 1011.1
20260509023040 46 0 0.0 1.7 0.04 0.15 0.15 95 1011.0
20260509021540 46 103 0.9 2.6 0.04 0.14 0.14 95 1010.7
20260509020040 46 137 0.0 1.7 0.03 0.13 0.13 94 1010.9
20260509014536 46 0 0.0 0.0 0.02 0.11 0.11 94 1010.8
20260509013035 46 0 0.0 1.7 0.04 0.11 0.11 93 1010.5
20260509011535 46 0 0.9 2.6 0.04 0.10 0.10 93 1010.2
20260509010036 46 0 0.0 0.9 0.05 0.10 0.10 91 1010.2
20260509004548 47 0 0.0 2.6 0.05 0.09 0.09 90 1010.2
20260509003041 47 202 1.7 3.5 0.03 0.07 0.07 89 1010.6
20260509001535 48 217 0.0 2.6 0.02 0.06 0.06 85 1009.9
20260509000041 49 206 1.7 3.5 0.00 0.04 0.04 81 1009.8
20260508234538 50 215 0.9 4.3 0.00 0.04 0.04 77 1009.9
20260508233039 51 207 2.6 6.1 0.00 0.04 0.04 76 1009.7
20260508231533 51 196 3.5 7.0 0.00 0.04 0.04 75 1009.5
20260508230039 51 155 2.6 4.3 0.00 0.04 0.04 76 1009.6
20260508224548 51 198 2.6 7.0 0.01 0.04 0.04 79 1009.7
20260508223047 51 209 2.6 7.8 0.01 0.04 0.04 79 1009.8
20260508221536 51 168 3.5 6.1 0.01 0.04 0.04 81 1009.5
20260508220044 51 198 0.9 5.2 0.01 0.04 0.04 82 1009.5
20260508214535 52 183 2.6 9.6 0.00 0.03 0.03 79 1009.5